Location: Poughquag
(41.6090°N, 73.6820°W)
Time: 03:36:03
(UTC-04:00)

Vanguard 2 - Pass Details

Date: 30 May 2020
Orbit: 552 x 2938 km, 32.9° (Epoch: 06 July)

Event Time Altitude Azimuth Distance (km) Brightness Sun altitude
Rises 21:55:26 0° 256° (WSW) 5,325 12.2 -14.4°
Reaches altitude 10° 21:59:44 10° 251° (WSW) 3,916 11.4 -14.9°
Maximum altitude 22:08:30 43° 184° (S) 1,542 8.7 -16.0°
Enters shadow 22:11:50 24° 129° (SE) 1,847 8.9 -16.4°
Drops below altitude 10° 22:14:00 10° 114° (ESE) 2,459 - -16.6°
Sets 22:16:08 0° 107° (ESE) 3,196 - -16.9°
